Time,TemperatureF,DewpointF,PressureIn,WindDirection,WindDirectionDegrees,WindSpeedMPH,WindSpeedGustMPH,Humidity,HourlyPrecipIn,Conditions,Clouds,dailyrainin,SoftwareType,DateUTC
2013-05-25 00:00:00,54.0,34.2,29.23,NNE,24,0.0,0.0,47,0.00,,SKC,0.00,VWS V14.00,2013-05-25 04:00:00,
2013-05-25 00:05:00,54.0,34.2,29.23,NNE,24,0.0,0.0,47,0.00,,SKC,0.00,VWS V14.00,2013-05-25 04:05:00,
2013-05-25 00:10:00,53.4,34.2,29.23,NNE,24,0.0,0.0,48,0.00,,SKC,0.00,VWS V14.00,2013-05-25 04:10:00,
2013-05-25 00:15:00,53.2,34.1,29.23,NNE,24,0.0,0.0,48,0.00,,SKC,0.00,VWS V14.00,2013-05-25 04:15:00,
2013-05-25 00:20:00,53.2,34.1,29.23,NNE,24,0.0,0.0,48,0.00,,SKC,0.00,VWS V14.00,2013-05-25 04:20:00,
2013-05-25 00:25:00,53.2,34.6,29.23,NNE,24,0.0,0.0,49,0.00,,SKC,0.00,VWS V14.00,2013-05-25 04:25:00,
2013-05-25 00:30:00,53.1,34.4,29.23,NNE,24,0.0,0.0,49,0.00,,SKC,0.00,VWS V14.00,2013-05-25 04:30:00,
2013-05-25 00:35:00,52.9,34.3,29.23,NNE,24,0.0,0.0,49,0.00,,SKC,0.00,VWS V14.00,2013-05-25 04:35:00,
2013-05-25 00:40:00,52.7,34.1,29.23,NNE,24,0.0,0.0,49,0.00,,SKC,0.00,VWS V14.00,2013-05-25 04:40:00,
2013-05-25 00:45:00,52.9,34.8,29.23,NNE,24,0.0,0.0,50,0.00,,SKC,0.00,VWS V14.00,2013-05-25 04:45:00,
2013-05-25 00:50:00,53.1,34.9,29.23,NNE,24,0.0,0.0,50,0.00,,SKC,0.00,VWS V14.00,2013-05-25 04:50:00,
2013-05-25 00:55:00,53.2,35.1,29.23,NNE,24,0.0,0.0,50,0.00,,SKC,0.00,VWS V14.00,2013-05-25 04:55:00,
2013-05-25 01:00:00,53.1,34.9,29.23,NNE,24,0.0,0.0,50,0.00,,SKC,0.00,VWS V14.00,2013-05-25 05:00:00,
2013-05-25 01:05:00,52.9,34.8,29.23,NNE,24,0.0,0.0,50,0.00,,SKC,0.00,VWS V14.00,2013-05-25 05:05:00,
2013-05-25 01:10:00,52.5,34.9,29.23,NNE,24,0.0,0.0,51,0.00,,SKC,0.00,VWS V14.00,2013-05-25 05:10:00,
2013-05-25 01:20:00,52.9,35.3,29.23,NNE,24,0.0,0.0,51,0.00,,SKC,0.00,VWS V14.00,2013-05-25 05:20:00,
2013-05-25 01:25:00,52.7,35.1,29.23,NNE,24,0.0,0.0,51,0.00,,SKC,0.00,VWS V14.00,2013-05-25 05:25:00,
2013-05-25 01:30:00,52.3,35.2,29.23,NNE,24,0.0,0.0,52,0.00,,SKC,0.00,VWS V14.00,2013-05-25 05:30:00,
2013-05-25 01:35:00,52.2,35.1,29.23,NNE,24,0.0,0.0,52,0.00,,SKC,0.00,VWS V14.00,2013-05-25 05:35:00,
2013-05-25 01:40:00,52.0,35.4,29.23,NNE,24,0.0,0.0,53,0.00,,SKC,0.00,VWS V14.00,2013-05-25 05:40:00,
2013-05-25 01:45:00,52.0,35.4,29.23,NNE,24,0.0,0.0,53,0.00,,SKC,0.00,VWS V14.00,2013-05-25 05:45:00,
2013-05-25 01:50:00,51.8,35.2,29.23,NNE,24,0.0,0.0,53,0.00,,SKC,0.00,VWS V14.00,2013-05-25 05:50:00,
2013-05-25 01:55:00,51.8,35.7,29.23,NNE,24,0.0,0.0,54,0.00,,SKC,0.00,VWS V14.00,2013-05-25 05:55:00,
2013-05-25 02:00:00,51.8,35.7,29.23,NNE,24,0.0,0.0,54,0.00,,SKC,0.00,VWS V14.00,2013-05-25 06:00:00,
2013-05-25 02:05:00,51.6,35.5,29.23,NNE,24,0.0,0.0,54,0.00,,SKC,0.00,VWS V14.00,2013-05-25 06:05:00,
2013-05-25 02:10:00,51.6,36.0,29.23,NNE,24,0.0,0.0,55,0.00,,SKC,0.00,VWS V14.00,2013-05-25 06:10:00,
2013-05-25 02:15:00,51.6,36.0,29.23,NNE,24,0.0,0.0,55,0.00,,SKC,0.00,VWS V14.00,2013-05-25 06:15:00,
2013-05-25 02:20:00,51.4,35.8,29.23,NNE,24,0.0,0.0,55,0.00,,SKC,0.00,VWS V14.00,2013-05-25 06:20:00,
2013-05-25 02:25:00,51.4,35.8,29.23,NNE,24,0.0,0.0,55,0.00,,SKC,0.00,VWS V14.00,2013-05-25 06:25:00,
2013-05-25 02:30:00,51.6,36.5,29.23,NNE,24,0.0,0.0,56,0.00,,SKC,0.00,VWS V14.00,2013-05-25 06:30:00,
2013-05-25 02:35:00,51.3,35.7,29.23,NNE,24,0.0,0.0,55,0.00,,SKC,0.00,VWS V14.00,2013-05-25 06:35:00,
2013-05-25 02:40:00,50.9,35.8,29.23,NNE,24,0.0,0.0,56,0.00,,SKC,0.00,VWS V14.00,2013-05-25 06:40:00,
2013-05-25 02:45:00,50.5,35.4,29.23,NNE,24,0.0,0.0,56,0.00,,SKC,0.00,VWS V14.00,2013-05-25 06:45:00,
2013-05-25 02:50:00,50.5,35.9,29.23,NNE,24,0.0,0.0,57,0.00,,SKC,0.00,VWS V14.00,2013-05-25 06:50:00,
2013-05-25 02:55:00,50.4,35.7,29.23,NNE,24,0.0,0.0,57,0.00,,SKC,0.00,VWS V14.00,2013-05-25 06:55:00,
2013-05-25 03:00:00,50.2,35.5,29.23,NNE,24,0.0,0.0,57,0.00,,SKC,0.00,VWS V14.00,2013-05-25 07:00:00,
2013-05-25 03:05:00,50.0,35.4,29.23,NNE,24,0.0,0.0,57,0.00,,SKC,0.00,VWS V14.00,2013-05-25 07:05:00,
2013-05-25 03:10:00,50.0,35.8,29.23,NNE,24,0.0,0.0,58,0.00,,SKC,0.00,VWS V14.00,2013-05-25 07:10:00,
2013-05-25 03:15:00,50.2,35.5,29.23,NNE,24,0.0,0.0,57,0.00,,SKC,0.00,VWS V14.00,2013-05-25 07:15:00,
2013-05-25 03:20:00,49.8,35.7,29.23,NNE,24,0.0,0.0,58,0.00,,SKC,0.00,VWS V14.00,2013-05-25 07:20:00,
2013-05-25 03:25:00,49.8,35.7,29.23,NNE,24,0.0,0.0,58,0.00,,SKC,0.00,VWS V14.00,2013-05-25 07:25:00,
2013-05-25 03:30:00,49.5,35.7,29.23,NNE,24,0.0,0.0,59,0.00,,SKC,0.00,VWS V14.00,2013-05-25 07:30:00,
2013-05-25 03:35:00,49.6,35.9,29.26,NNE,24,0.0,0.0,59,0.00,,SKC,0.00,VWS V14.00,2013-05-25 07:35:00,
2013-05-25 03:40:00,49.6,35.9,29.26,NNE,24,0.0,0.0,59,0.00,,SKC,0.00,VWS V14.00,2013-05-25 07:40:00,
2013-05-25 03:45:00,49.6,35.9,29.26,NNE,24,0.0,0.0,59,0.00,,SKC,0.00,VWS V14.00,2013-05-25 07:45:00,
2013-05-25 03:50:00,49.6,36.3,29.26,NNE,24,0.0,0.0,60,0.00,,SKC,0.00,VWS V14.00,2013-05-25 07:50:00,
2013-05-25 03:55:00,49.5,36.2,29.26,NNE,24,0.0,0.0,60,0.00,,SKC,0.00,VWS V14.00,2013-05-25 07:55:00,
2013-05-25 04:00:00,49.5,36.2,29.26,NNE,24,0.0,0.0,60,0.00,,SKC,0.00,VWS V14.00,2013-05-25 08:00:00,
2013-05-25 04:05:00,49.3,36.0,29.26,NNE,24,0.0,0.0,60,0.00,,SKC,0.00,VWS V14.00,2013-05-25 08:05:00,
2013-05-25 04:10:00,48.7,35.5,29.26,NNE,24,0.0,0.0,60,0.00,,SKC,0.00,VWS V14.00,2013-05-25 08:10:00,
2013-05-25 04:15:00,48.7,35.9,29.26,NNE,24,0.0,0.0,61,0.00,,SKC,0.00,VWS V14.00,2013-05-25 08:15:00,
2013-05-25 04:20:00,48.7,35.9,29.23,NNE,24,0.0,0.0,61,0.00,,SKC,0.00,VWS V14.00,2013-05-25 08:20:00,
2013-05-25 04:25:00,48.7,35.9,29.23,NNE,24,0.0,0.0,61,0.00,,SKC,0.00,VWS V14.00,2013-05-25 08:25:00,
2013-05-25 04:30:00,48.7,35.9,29.23,NNE,24,0.0,0.0,61,0.00,,SKC,0.00,VWS V14.00,2013-05-25 08:30:00,
2013-05-25 04:35:00,48.7,35.9,29.23,NNE,24,0.0,0.0,61,0.00,,SKC,0.00,VWS V14.00,2013-05-25 08:35:00,
2013-05-25 04:40:00,48.6,35.7,29.23,NNE,24,0.0,0.0,61,0.00,,SKC,0.00,VWS V14.00,2013-05-25 08:40:00,
2013-05-25 04:45:00,48.4,35.6,29.23,NNE,24,0.0,0.0,61,0.00,,SKC,0.00,VWS V14.00,2013-05-25 08:45:00,
2013-05-25 04:50:00,48.4,36.0,29.26,NNE,24,0.0,0.0,62,0.00,,SKC,0.00,VWS V14.00,2013-05-25 08:50:00,
2013-05-25 04:55:00,48.2,35.8,29.26,NNE,24,0.0,0.0,62,0.00,,SKC,0.00,VWS V14.00,2013-05-25 08:55:00,
2013-05-25 05:00:00,48.2,35.8,29.26,NNE,24,0.0,0.0,62,0.00,,SKC,0.00,VWS V14.00,2013-05-25 09:00:00,
2013-05-25 05:05:00,48.2,35.8,29.26,NNE,24,0.0,0.0,62,0.00,,SKC,0.00,VWS V14.00,2013-05-25 09:05:00,
2013-05-25 05:10:00,48.0,35.6,29.26,NNE,24,0.0,0.0,62,0.00,,SKC,0.00,VWS V14.00,2013-05-25 09:10:00,
2013-05-25 05:15:00,48.2,35.8,29.26,NNE,24,0.0,0.0,62,0.00,,SKC,0.00,VWS V14.00,2013-05-25 09:15:00,
2013-05-25 05:20:00,48.0,35.6,29.26,NNE,24,0.0,0.0,62,0.00,,SKC,0.00,VWS V14.00,2013-05-25 09:20:00,
2013-05-25 05:25:00,48.0,36.0,29.26,NNE,24,0.0,0.0,63,0.00,,SKC,0.00,VWS V14.00,2013-05-25 09:25:00,
2013-05-25 05:30:00,48.0,35.6,29.26,NNE,24,0.0,0.0,62,0.00,,SKC,0.00,VWS V14.00,2013-05-25 09:30:00,
2013-05-25 05:36:00,47.7,35.7,29.26,NNE,24,0.0,0.0,63,0.00,,SKC,0.00,VWS V14.00,2013-05-25 09:36:00,
2013-05-25 05:41:00,47.8,35.9,29.26,NNE,24,0.0,0.0,63,0.00,,SKC,0.00,VWS V14.00,2013-05-25 09:41:00,
2013-05-25 05:46:00,47.7,35.7,29.26,NNE,24,0.0,0.0,63,0.00,,SKC,0.00,VWS V14.00,2013-05-25 09:46:00,
2013-05-25 05:51:00,47.7,35.7,29.26,NNE,24,0.0,0.0,63,0.00,,SKC,0.00,VWS V14.00,2013-05-25 09:51:00,
2013-05-25 05:56:00,47.7,35.7,29.26,NNE,24,0.0,0.0,63,0.00,,SKC,0.00,VWS V14.00,2013-05-25 09:56:00,
2013-05-25 06:01:00,47.5,35.9,29.26,NNE,24,0.0,0.0,64,0.00,,SKC,0.00,VWS V14.00,2013-05-25 10:01:00,
2013-05-25 06:06:00,47.5,35.9,29.26,NNE,24,0.0,0.0,64,0.00,,SKC,0.00,VWS V14.00,2013-05-25 10:06:00,
2013-05-25 06:11:00,47.5,35.9,29.26,NNE,24,0.0,0.0,64,0.00,,SKC,0.00,VWS V14.00,2013-05-25 10:11:00,
2013-05-25 06:16:00,47.3,35.8,29.26,NNE,24,0.0,0.0,64,0.00,,SKC,0.00,VWS V14.00,2013-05-25 10:16:00,
2013-05-25 06:21:00,46.9,35.4,29.26,NNE,24,0.0,0.0,64,0.00,,SKC,0.00,VWS V14.00,2013-05-25 10:21:00,
2013-05-25 06:26:00,46.9,35.8,29.26,NNE,24,0.0,0.0,65,0.00,,SKC,0.00,VWS V14.00,2013-05-25 10:26:00,
2013-05-25 06:31:00,47.1,36.0,29.26,NNE,24,0.0,0.0,65,0.00,,SKC,0.00,VWS V14.00,2013-05-25 10:31:00,
2013-05-25 06:36:00,47.1,36.0,29.29,NNE,24,0.0,0.0,65,0.00,,SKC,0.00,VWS V14.00,2013-05-25 10:36:00,
2013-05-25 06:41:00,47.1,36.0,29.29,NNE,24,0.0,0.0,65,0.00,,SKC,0.00,VWS V14.00,2013-05-25 10:41:00,
2013-05-25 06:46:00,47.3,36.2,29.29,NNE,24,0.0,0.0,65,0.00,,SKC,0.00,VWS V14.00,2013-05-25 10:46:00,
2013-05-25 06:51:00,47.3,36.2,29.29,NNE,24,0.0,0.0,65,0.00,,SKC,0.00,VWS V14.00,2013-05-25 10:51:00,
2013-05-25 06:56:00,47.1,36.4,29.29,NNE,24,0.0,0.0,66,0.00,,SKC,0.00,VWS V14.00,2013-05-25 10:56:00,
2013-05-25 07:01:00,47.3,36.5,29.29,NNE,24,0.0,0.0,66,0.00,,SKC,0.00,VWS V14.00,2013-05-25 11:01:00,
2013-05-25 07:06:00,47.3,36.5,29.29,NNE,24,0.0,0.0,66,0.00,,SKC,0.00,VWS V14.00,2013-05-25 11:06:00,
2013-05-25 07:11:00,47.5,37.1,29.29,NNE,24,0.0,0.0,67,0.00,,SKC,0.00,VWS V14.00,2013-05-25 11:11:00,
2013-05-25 07:16:00,47.7,37.3,29.29,NNE,24,0.0,0.0,67,0.00,,SKC,0.00,VWS V14.00,2013-05-25 11:16:00,
2013-05-25 07:21:00,47.8,37.4,29.29,NNE,24,0.0,0.0,67,0.00,,SKC,0.00,VWS V14.00,2013-05-25 11:21:00,
2013-05-25 07:26:00,48.0,38.0,29.29,NNE,24,0.0,0.0,68,0.00,,SKC,0.00,VWS V14.00,2013-05-25 11:26:00,
2013-05-25 07:31:00,48.4,38.3,29.29,NNE,24,0.0,0.0,68,0.00,,SKC,0.00,VWS V14.00,2013-05-25 11:31:00,
2013-05-25 07:36:00,48.7,38.7,29.29,NNE,25,0.0,0.0,68,0.00,,SKC,0.00,VWS V14.00,2013-05-25 11:36:00,
2013-05-25 07:41:00,48.9,38.8,29.29,NNE,24,0.0,0.0,68,0.00,,SKC,0.00,VWS V14.00,2013-05-25 11:41:00,
2013-05-25 07:46:00,49.1,39.4,29.29,NNE,29,0.0,0.0,69,0.00,,SKC,0.00,VWS V14.00,2013-05-25 11:46:00,
2013-05-25 07:51:00,49.5,39.7,29.29,NE,50,0.0,0.0,69,0.00,,SKC,0.00,VWS V14.00,2013-05-25 11:51:00,
2013-05-25 07:56:00,50.0,40.2,29.29,NE,50,0.0,0.0,69,0.00,,SKC,0.00,VWS V14.00,2013-05-25 11:56:00,
2013-05-25 08:01:00,50.5,40.8,29.29,NE,36,0.0,3.1,69,0.00,,SKC,0.00,VWS V14.00,2013-05-25 12:01:00,
2013-05-25 08:06:00,51.1,41.3,29.29,NNE,30,0.0,4.9,69,0.00,,SKC,0.00,VWS V14.00,2013-05-25 12:06:00,
2013-05-25 08:11:00,51.6,41.8,29.29,NNE,32,0.0,0.0,69,0.00,,SKC,0.00,VWS V14.00,2013-05-25 12:11:00,
2013-05-25 08:16:00,52.2,42.3,29.29,NNE,32,0.0,0.0,69,0.00,,SKC,0.00,VWS V14.00,2013-05-25 12:16:00,
2013-05-25 08:21:00,52.7,42.8,29.29,NE,38,0.0,0.0,69,0.00,,SKC,0.00,VWS V14.00,2013-05-25 12:21:00,
2013-05-25 08:26:00,53.1,43.2,29.29,NNE,17,0.0,2.7,69,0.00,,SKC,0.00,VWS V14.00,2013-05-25 12:26:00,
2013-05-25 08:31:00,53.8,43.5,29.29,NNE,21,0.0,2.2,68,0.00,,SKC,0.00,VWS V14.00,2013-05-25 12:31:00,
2013-05-25 08:36:00,54.3,43.6,29.29,NE,37,5.9,5.9,67,0.00,,SKC,0.00,VWS V14.00,2013-05-25 12:36:00,
2013-05-25 08:41:00,54.9,44.1,29.29,NNE,23,0.0,0.0,67,0.00,,SKC,0.00,VWS V14.00,2013-05-25 12:41:00,
2013-05-25 08:46:00,55.2,44.5,29.29,NE,37,0.0,3.6,67,0.00,,SKC,0.00,VWS V14.00,2013-05-25 12:46:00,
2013-05-25 08:51:00,55.6,44.4,29.29,NE,34,3.2,3.2,66,0.00,,SKC,0.00,VWS V14.00,2013-05-25 12:51:00,
2013-05-25 08:56:00,56.1,44.5,29.29,East,83,0.0,2.7,65,0.00,,SKC,0.00,VWS V14.00,2013-05-25 12:56:00,
2013-05-25 09:01:00,56.5,44.9,29.29,NE,45,0.0,0.0,65,0.00,,SKC,0.00,VWS V14.00,2013-05-25 13:01:00,
2013-05-25 09:06:00,56.7,45.4,29.29,NE,40,0.0,0.0,66,0.00,,SKC,0.00,VWS V14.00,2013-05-25 13:06:00,
2013-05-25 09:11:00,57.2,45.2,29.29,NNE,24,5.4,5.8,64,0.00,,SKC,0.00,VWS V14.00,2013-05-25 13:11:00,
2013-05-25 09:16:00,57.7,45.2,29.29,NNE,30,5.9,5.9,63,0.00,,SKC,0.00,VWS V14.00,2013-05-25 13:16:00,
2013-05-25 09:21:00,58.3,44.9,29.29,NE,36,6.4,6.4,61,0.00,,SKC,0.00,VWS V14.00,2013-05-25 13:21:00,
2013-05-25 09:26:00,58.6,43.5,29.29,NNE,24,3.8,6.7,57,0.00,,SKC,0.00,VWS V14.00,2013-05-25 13:26:00,
2013-05-25 09:31:00,59.4,43.7,29.29,NNE,31,3.8,3.8,56,0.00,,SKC,0.00,VWS V14.00,2013-05-25 13:31:00,
2013-05-25 09:36:00,59.9,43.7,29.29,NNE,30,0.0,4.0,55,0.00,,SKC,0.00,VWS V14.00,2013-05-25 13:36:00,
2013-05-25 09:41:00,60.4,44.2,29.29,NNE,30,0.0,4.0,55,0.00,,SKC,0.00,VWS V14.00,2013-05-25 13:41:00,
2013-05-25 09:46:00,61.0,44.2,29.29,East,93,0.0,4.0,54,0.00,,SKC,0.00,VWS V14.00,2013-05-25 13:46:00,
2013-05-25 09:51:00,61.3,44.1,29.29,NNE,18,3.2,4.0,53,0.00,,SKC,0.00,VWS V14.00,2013-05-25 13:51:00,
2013-05-25 09:56:00,61.5,43.8,29.29,North,2,0.0,5.4,52,0.00,,SKC,0.00,VWS V14.00,2013-05-25 13:56:00,
2013-05-25 10:01:00,61.7,43.9,29.29,NNE,14,0.0,3.1,52,0.00,,SKC,0.00,VWS V14.00,2013-05-25 14:01:00,
2013-05-25 10:06:00,62.1,42.2,29.29,NNE,29,0.0,5.8,48,0.00,,SKC,0.00,VWS V14.00,2013-05-25 14:06:00,
2013-05-25 10:11:00,62.4,41.4,29.29,NNE,28,5.9,7.6,46,0.00,,SKC,0.00,VWS V14.00,2013-05-25 14:11:00,
2013-05-25 10:16:00,62.6,41.5,29.29,NNE,31,4.3,7.6,46,0.00,,SKC,0.00,VWS V14.00,2013-05-25 14:16:00,
2013-05-25 10:21:00,62.8,41.7,29.29,NE,36,7.0,7.0,46,0.00,,SKC,0.00,VWS V14.00,2013-05-25 14:21:00,
2013-05-25 10:26:00,63.0,40.1,29.29,NNE,28,4.8,6.7,43,0.00,,SKC,0.00,VWS V14.00,2013-05-25 14:26:00,
2013-05-25 10:31:00,63.1,39.1,29.29,NE,51,3.8,4.9,41,0.00,,SKC,0.00,VWS V14.00,2013-05-25 14:31:00,
2013-05-25 10:36:00,63.5,40.6,29.29,NE,37,4.3,5.8,43,0.00,,SKC,0.00,VWS V14.00,2013-05-25 14:36:00,
2013-05-25 10:41:00,63.9,42.1,29.29,SE,141,2.7,3.1,45,0.00,,SKC,0.00,VWS V14.00,2013-05-25 14:41:00,
2013-05-25 10:47:00,64.0,41.7,29.29,South,177,0.0,5.4,44,0.00,,SKC,0.00,VWS V14.00,2013-05-25 14:47:00,
2013-05-25 10:52:00,64.4,41.4,29.29,NNE,13,0.0,4.0,43,0.00,,SKC,0.00,VWS V14.00,2013-05-25 14:52:00,
2013-05-25 10:57:00,64.8,41.8,29.29,NNW,330,0.0,4.0,43,0.00,,SKC,0.00,VWS V14.00,2013-05-25 14:57:00,
2013-05-25 11:02:00,65.1,40.2,29.29,NW,313,4.8,4.8,40,0.00,,SKC,0.00,VWS V14.00,2013-05-25 15:02:00,
2013-05-25 11:07:00,65.5,42.4,29.29,East,90,0.0,4.0,43,0.00,,SKC,0.00,VWS V14.00,2013-05-25 15:07:00,
2013-05-25 11:12:00,65.7,40.7,29.29,NNE,18,5.9,5.9,40,0.00,,SKC,0.00,VWS V14.00,2013-05-25 15:12:00,
2013-05-25 11:17:00,65.8,40.9,29.29,NE,38,3.8,8.3,40,0.00,,SKC,0.00,VWS V14.00,2013-05-25 15:17:00,
2013-05-25 11:22:00,65.8,41.5,29.29,NE,42,3.8,3.8,41,0.00,,SKC,0.00,VWS V14.00,2013-05-25 15:22:00,
2013-05-25 11:27:00,66.0,39.7,29.29,NE,36,7.0,7.6,38,0.00,,SKC,0.00,VWS V14.00,2013-05-25 15:27:00,
2013-05-25 11:32:00,66.4,40.0,29.29,NNE,25,0.0,3.6,38,0.00,,SKC,0.00,VWS V14.00,2013-05-25 15:32:00,
2013-05-25 11:37:00,66.7,40.3,29.29,NE,34,0.0,3.6,38,0.00,,SKC,0.00,VWS V14.00,2013-05-25 15:37:00,
2013-05-25 11:42:00,66.9,39.8,29.29,NNE,28,2.7,4.0,37,0.00,,SKC,0.00,VWS V14.00,2013-05-25 15:42:00,
2013-05-25 11:47:00,67.3,40.8,29.29,NE,38,3.2,4.5,38,0.00,,SKC,0.00,VWS V14.00,2013-05-25 15:47:00,
2013-05-25 11:52:00,67.6,40.5,29.26,NE,38,0.0,3.1,37,0.00,,SKC,0.00,VWS V14.00,2013-05-25 15:52:00,
2013-05-25 11:57:00,68.0,40.8,29.26,NNE,33,3.8,3.8,37,0.00,,SKC,0.00,VWS V14.00,2013-05-25 15:57:00,
2013-05-25 12:02:00,68.4,40.4,29.26,North,1,3.2,3.6,36,0.00,,SKC,0.00,VWS V14.00,2013-05-25 16:02:00,
2013-05-25 12:07:00,68.5,39.1,29.26,NNE,18,3.2,5.8,34,0.00,,SKC,0.00,VWS V14.00,2013-05-25 16:07:00,
2013-05-25 12:12:00,68.5,39.1,29.26,NNE,23,0.0,4.0,34,0.00,,SKC,0.00,VWS V14.00,2013-05-25 16:12:00,
2013-05-25 12:17:00,68.5,39.1,29.26,NE,50,3.2,5.4,34,0.00,,SKC,0.00,VWS V14.00,2013-05-25 16:17:00,
2013-05-25 12:22:00,68.9,38.6,29.26,NNE,18,0.0,4.0,33,0.00,,SKC,0.00,VWS V14.00,2013-05-25 16:22:00,
2013-05-25 12:27:00,69.6,40.0,29.26,ENE,64,0.0,4.0,34,0.00,,SKC,0.00,VWS V14.00,2013-05-25 16:27:00,
2013-05-25 12:32:00,70.3,40.7,29.26,NNE,13,0.0,0.0,34,0.00,,SKC,0.00,VWS V14.00,2013-05-25 16:32:00,
2013-05-25 12:37:00,70.9,41.1,29.26,West,269,0.0,3.1,34,0.00,,SKC,0.00,VWS V14.00,2013-05-25 16:37:00,
2013-05-25 12:42:00,71.4,40.8,29.26,NE,36,6.4,6.4,33,0.00,,SKC,0.00,VWS V14.00,2013-05-25 16:42:00,
2013-05-25 12:47:00,71.6,41.0,29.26,SW,236,0.0,5.8,33,0.00,,SKC,0.00,VWS V14.00,2013-05-25 16:47:00,
2013-05-25 12:52:00,72.0,40.5,29.26,NNE,14,0.0,3.6,32,0.00,,SKC,0.00,VWS V14.00,2013-05-25 16:52:00,
2013-05-25 12:57:00,72.5,41.0,29.26,North,353,3.2,3.6,32,0.00,,SKC,0.00,VWS V14.00,2013-05-25 16:57:00,
2013-05-25 13:02:00,72.9,41.3,29.26,SE,143,0.0,4.0,32,0.00,,SKC,0.00,VWS V14.00,2013-05-25 17:02:00,
2013-05-25 13:07:00,73.4,41.8,29.26,NNE,29,3.2,4.0,32,0.00,,SKC,0.00,VWS V14.00,2013-05-25 17:07:00,
2013-05-25 13:12:00,73.9,42.2,29.26,SSW,206,0.0,0.0,32,0.00,,SKC,0.00,VWS V14.00,2013-05-25 17:12:00,
2013-05-25 13:17:00,74.3,41.7,29.26,NE,34,5.9,5.9,31,0.00,,SKC,0.00,VWS V14.00,2013-05-25 17:17:00,
2013-05-25 13:22:00,74.3,41.7,29.26,SSW,199,3.8,5.4,31,0.00,,SKC,0.00,VWS V14.00,2013-05-25 17:22:00,
2013-05-25 13:27:00,74.5,41.9,29.26,NE,34,3.2,5.4,31,0.00,,SKC,0.00,VWS V14.00,2013-05-25 17:27:00,
2013-05-25 13:32:00,74.8,42.2,29.26,SSW,201,0.0,0.0,31,0.00,,SKC,0.00,VWS V14.00,2013-05-25 17:32:00,
2013-05-25 13:37:00,75.0,41.5,29.23,North,8,4.8,4.8,30,0.00,,SKC,0.00,VWS V14.00,2013-05-25 17:37:00,
2013-05-25 13:42:00,75.0,42.4,29.23,NNE,12,0.0,4.9,31,0.00,,SKC,0.00,VWS V14.00,2013-05-25 17:42:00,
2013-05-25 13:47:00,75.2,40.8,29.23,NNW,346,2.7,5.4,29,0.00,,SKC,0.00,VWS V14.00,2013-05-25 17:47:00,
2013-05-25 13:52:00,75.6,42.0,29.23,WSW,254,0.0,0.0,30,0.00,,SKC,0.00,VWS V14.00,2013-05-25 17:52:00,
2013-05-25 13:57:00,75.9,42.3,29.23,SE,135,0.0,3.6,30,0.00,,SKC,0.00,VWS V14.00,2013-05-25 17:57:00,
2013-05-25 14:02:00,76.5,42.8,29.23,SSW,193,0.0,0.0,30,0.00,,SKC,0.00,VWS V14.00,2013-05-25 18:02:00,
2013-05-25 14:07:00,76.6,42.9,29.23,SSE,159,2.7,2.7,30,0.00,,SKC,0.00,VWS V14.00,2013-05-25 18:07:00,
2013-05-25 14:12:00,77.0,42.3,29.23,NNE,33,0.0,3.1,29,0.00,,SKC,0.00,VWS V14.00,2013-05-25 18:12:00,
2013-05-25 14:17:00,76.6,41.1,29.23,NNE,16,0.0,4.0,28,0.00,,SKC,0.00,VWS V14.00,2013-05-25 18:17:00,
2013-05-25 14:22:00,76.5,40.0,29.23,ESE,118,0.0,0.0,27,0.00,,SKC,0.00,VWS V14.00,2013-05-25 18:22:00,
2013-05-25 14:27:00,76.6,40.2,29.23,NW,325,0.0,4.0,27,0.00,,SKC,0.00,VWS V14.00,2013-05-25 18:27:00,
2013-05-25 14:32:00,77.0,40.5,29.23,NE,34,0.0,0.0,27,0.00,,SKC,0.00,VWS V14.00,2013-05-25 18:32:00,
2013-05-25 14:37:00,77.4,39.8,29.23,NNE,22,0.0,0.0,26,0.00,,SKC,0.00,VWS V14.00,2013-05-25 18:37:00,
2013-05-25 14:42:00,77.2,38.7,29.23,North,9,0.0,2.7,25,0.00,,SKC,0.00,VWS V14.00,2013-05-25 18:42:00,
2013-05-25 14:47:00,76.8,38.4,29.23,NNW,330,0.0,2.7,25,0.00,,SKC,0.00,VWS V14.00,2013-05-25 18:47:00,
2013-05-25 14:52:00,77.2,38.7,29.21,WNW,293,0.0,0.0,25,0.00,,SKC,0.00,VWS V14.00,2013-05-25 18:52:00,
2013-05-25 14:57:00,77.4,39.8,29.21,WNW,291,0.0,0.0,26,0.00,,SKC,0.00,VWS V14.00,2013-05-25 18:57:00,
2013-05-25 15:02:00,77.7,39.1,29.21,SSW,212,0.0,0.0,25,0.00,,SKC,0.00,VWS V14.00,2013-05-25 19:02:00,
2013-05-25 15:07:00,77.7,38.1,29.23,NNE,21,0.0,4.0,24,0.00,,SKC,0.00,VWS V14.00,2013-05-25 19:07:00,
2013-05-25 15:12:00,77.7,39.1,29.23,SW,236,0.0,0.0,25,0.00,,SKC,0.00,VWS V14.00,2013-05-25 19:12:00,
2013-05-25 15:17:00,77.5,39.0,29.23,West,267,0.0,0.0,25,0.00,,SKC,0.00,VWS V14.00,2013-05-25 19:17:00,
2013-05-25 15:22:00,77.4,38.8,29.21,SW,236,0.0,0.0,25,0.00,,SKC,0.00,VWS V14.00,2013-05-25 19:22:00,
2013-05-25 15:27:00,77.4,38.8,29.21,WSW,254,0.0,3.1,25,0.00,,SKC,0.00,VWS V14.00,2013-05-25 19:27:00,
2013-05-25 15:32:00,77.0,38.5,29.21,NNW,343,0.0,0.0,25,0.00,,SKC,0.00,VWS V14.00,2013-05-25 19:32:00,
2013-05-25 15:37:00,76.8,38.4,29.21,West,260,0.0,0.0,25,0.00,,SKC,0.00,VWS V14.00,2013-05-25 19:37:00,
2013-05-25 15:42:00,76.6,38.2,29.21,WNW,294,0.0,3.6,25,0.00,,SKC,0.00,VWS V14.00,2013-05-25 19:42:00,
2013-05-25 15:47:00,76.5,38.1,29.21,SW,216,0.0,3.6,25,0.00,,SKC,0.00,VWS V14.00,2013-05-25 19:47:00,
2013-05-25 15:52:00,76.5,38.1,29.21,SSE,157,0.0,0.0,25,0.00,,SKC,0.00,VWS V14.00,2013-05-25 19:52:00,
2013-05-25 15:57:00,76.1,37.8,29.21,NNE,20,0.0,4.0,25,0.00,,SKC,0.00,VWS V14.00,2013-05-25 19:57:00,
2013-05-25 16:02:00,75.9,37.6,29.21,WNW,296,0.0,0.0,25,0.00,,SKC,0.00,VWS V14.00,2013-05-25 20:02:00,
2013-05-25 16:07:00,75.7,38.5,29.21,SW,217,0.0,3.6,26,0.00,,SKC,0.00,VWS V14.00,2013-05-25 20:07:00,
2013-05-25 16:12:00,75.9,38.6,29.21,SW,216,0.0,0.0,26,0.00,,SKC,0.00,VWS V14.00,2013-05-25 20:12:00,
2013-05-25 16:17:00,75.9,38.6,29.21,NE,38,0.0,0.0,26,0.00,,SKC,0.00,VWS V14.00,2013-05-25 20:17:00,
2013-05-25 16:22:00,75.9,38.6,29.21,SSW,210,0.0,0.0,26,0.00,,SKC,0.00,VWS V14.00,2013-05-25 20:22:00,
2013-05-25 16:27:00,75.9,38.6,29.21,NNE,20,0.0,3.1,26,0.00,,SKC,0.00,VWS V14.00,2013-05-25 20:27:00,
2013-05-25 16:33:00,75.9,38.6,29.21,ENE,68,0.0,4.0,26,0.00,,SKC,0.00,VWS V14.00,2013-05-25 20:33:00,
2013-05-25 16:38:00,75.7,38.5,29.21,ENE,75,0.0,4.0,26,0.00,,SKC,0.00,VWS V14.00,2013-05-25 20:38:00,
2013-05-25 16:43:00,75.7,38.5,29.21,WSW,257,0.0,0.0,26,0.00,,SKC,0.00,VWS V14.00,2013-05-25 20:43:00,
2013-05-25 16:48:00,75.6,39.3,29.21,NNE,14,3.2,3.2,27,0.00,,SKC,0.00,VWS V14.00,2013-05-25 20:48:00,
2013-05-25 16:53:00,75.2,38.0,29.21,NE,55,0.0,3.6,26,0.00,,SKC,0.00,VWS V14.00,2013-05-25 20:53:00,
2013-05-25 16:58:00,75.0,38.8,29.21,NNE,33,0.0,3.6,27,0.00,,SKC,0.00,VWS V14.00,2013-05-25 20:58:00,
2013-05-25 17:03:00,74.7,37.5,29.21,NNE,19,0.0,0.0,26,0.00,,SKC,0.00,VWS V14.00,2013-05-25 21:03:00,
2013-05-25 17:08:00,74.5,37.4,29.21,NNE,33,0.0,0.0,26,0.00,,SKC,0.00,VWS V14.00,2013-05-25 21:08:00,
2013-05-25 17:13:00,74.3,38.2,29.21,NE,37,0.0,0.0,27,0.00,,SKC,0.00,VWS V14.00,2013-05-25 21:13:00,
2013-05-25 17:18:00,74.1,37.1,29.21,NNE,27,3.2,3.2,26,0.00,,SKC,0.00,VWS V14.00,2013-05-25 21:18:00,
2013-05-25 17:23:00,73.8,35.8,29.21,NE,55,0.0,4.9,25,0.00,,SKC,0.00,VWS V14.00,2013-05-25 21:23:00,
2013-05-25 17:28:00,73.4,35.5,29.21,NNE,33,0.0,4.9,25,0.00,,SKC,0.00,VWS V14.00,2013-05-25 21:28:00,
2013-05-25 17:33:00,73.2,36.3,29.21,North,10,0.0,2.7,26,0.00,,SKC,0.00,VWS V14.00,2013-05-25 21:33:00,
2013-05-25 17:38:00,73.0,36.2,29.21,NNE,32,7.5,7.5,26,0.00,,SKC,0.00,VWS V14.00,2013-05-25 21:38:00,
2013-05-25 17:43:00,72.9,35.0,29.21,NE,47,0.0,4.9,25,0.00,,SKC,0.00,VWS V14.00,2013-05-25 21:43:00,
2013-05-25 17:48:00,72.7,35.8,29.21,ESE,110,0.0,4.9,26,0.00,,SKC,0.00,VWS V14.00,2013-05-25 21:48:00,
2013-05-25 17:53:00,72.7,35.8,29.18,NNE,22,0.0,3.6,26,0.00,,SKC,0.00,VWS V14.00,2013-05-25 21:53:00,
2013-05-25 17:58:00,72.7,34.9,29.18,NNE,26,0.0,4.9,25,0.00,,SKC,0.00,VWS V14.00,2013-05-25 21:58:00,
2013-05-25 18:03:00,72.5,34.7,29.18,NNE,31,0.0,4.0,25,0.00,,SKC,0.00,VWS V14.00,2013-05-25 22:03:00,
2013-05-25 18:08:00,72.3,34.6,29.18,NNE,31,0.0,4.0,25,0.00,,SKC,0.00,VWS V14.00,2013-05-25 22:08:00,
2013-05-25 18:13:00,72.1,35.4,29.18,NE,38,0.0,0.0,26,0.00,,SKC,0.00,VWS V14.00,2013-05-25 22:13:00,
2013-05-25 18:18:00,72.0,35.2,29.18,NE,38,0.0,0.0,26,0.00,,SKC,0.00,VWS V14.00,2013-05-25 22:18:00,
2013-05-25 18:23:00,72.0,35.2,29.18,NE,38,0.0,0.0,26,0.00,,SKC,0.00,VWS V14.00,2013-05-25 22:23:00,
2013-05-25 18:28:00,71.8,35.1,29.18,NE,38,0.0,0.0,26,0.00,,SKC,0.00,VWS V14.00,2013-05-25 22:28:00,
2013-05-25 18:33:00,71.8,35.1,29.18,SE,130,0.0,0.0,26,0.00,,SKC,0.00,VWS V14.00,2013-05-25 22:33:00,
2013-05-25 18:38:00,71.6,35.9,29.18,SE,144,0.0,0.0,27,0.00,,SKC,0.00,VWS V14.00,2013-05-25 22:38:00,
2013-05-25 18:43:00,71.4,35.7,29.18,SE,144,0.0,0.0,27,0.00,,SKC,0.00,VWS V14.00,2013-05-25 22:43:00,
2013-05-25 18:48:00,71.2,35.6,29.18,ENE,62,0.0,0.0,27,0.00,,SKC,0.00,VWS V14.00,2013-05-25 22:48:00,
2013-05-25 18:53:00,71.4,35.7,29.18,NE,40,0.0,0.0,27,0.00,,SKC,0.00,VWS V14.00,2013-05-25 22:53:00,
2013-05-25 18:58:00,71.4,35.7,29.18,NE,36,0.0,0.0,27,0.00,,SKC,0.00,VWS V14.00,2013-05-25 22:58:00,
2013-05-25 19:03:00,71.4,35.7,29.18,NNE,33,0.0,0.0,27,0.00,,SKC,0.00,VWS V14.00,2013-05-25 23:03:00,
2013-05-25 19:08:00,71.2,36.5,29.18,NNE,33,0.0,0.0,28,0.00,,SKC,0.00,VWS V14.00,2013-05-25 23:08:00,
2013-05-25 19:13:00,71.1,37.2,29.18,NNE,33,0.0,0.0,29,0.00,,SKC,0.00,VWS V14.00,2013-05-25 23:13:00,
2013-05-25 19:18:00,70.9,37.1,29.18,ENE,77,0.0,0.0,29,0.00,,SKC,0.00,VWS V14.00,2013-05-25 23:18:00,
2013-05-25 19:23:00,70.7,36.9,29.18,SSE,157,0.0,0.0,29,0.00,,SKC,0.00,VWS V14.00,2013-05-25 23:23:00,
2013-05-25 19:28:00,70.5,36.8,29.18,SSE,157,0.0,0.0,29,0.00,,SKC,0.00,VWS V14.00,2013-05-25 23:28:00,
2013-05-25 19:33:00,70.3,36.6,29.18,SSE,157,0.0,0.0,29,0.00,,SKC,0.00,VWS V14.00,2013-05-25 23:33:00,
2013-05-25 19:38:00,70.3,36.6,29.18,NE,34,0.0,0.0,29,0.00,,SKC,0.00,VWS V14.00,2013-05-25 23:38:00,
2013-05-25 19:43:00,70.2,36.5,29.18,NE,36,0.0,0.0,29,0.00,,SKC,0.00,VWS V14.00,2013-05-25 23:43:00,
2013-05-25 19:48:00,70.2,36.5,29.18,NE,36,0.0,0.0,29,0.00,,SKC,0.00,VWS V14.00,2013-05-25 23:48:00,
2013-05-25 19:53:00,69.8,37.0,29.18,NE,36,0.0,0.0,30,0.00,,SKC,0.00,VWS V14.00,2013-05-25 23:53:00,
2013-05-25 19:58:00,69.4,37.5,29.18,NE,36,0.0,0.0,31,0.00,,SKC,0.00,VWS V14.00,2013-05-25 23:58:00,
2013-05-25 20:03:00,69.3,38.2,29.18,NE,36,0.0,0.0,32,0.00,,SKC,0.00,VWS V14.00,2013-05-26 00:03:00,
2013-05-25 20:08:00,68.9,37.8,29.18,NE,35,0.0,0.0,32,0.00,,SKC,0.00,VWS V14.00,2013-05-26 00:08:00,
2013-05-25 20:13:00,68.5,37.5,29.18,NE,35,0.0,0.0,32,0.00,,SKC,0.00,VWS V14.00,2013-05-26 00:13:00,
2013-05-25 20:18:00,68.2,38.0,29.18,NE,36,0.0,0.0,33,0.00,,SKC,0.00,VWS V14.00,2013-05-26 00:18:00,
2013-05-25 20:23:00,68.0,37.8,29.18,NE,36,0.0,0.0,33,0.00,,SKC,0.00,VWS V14.00,2013-05-26 00:23:00,
2013-05-25 20:28:00,67.6,38.3,29.18,NE,36,0.0,0.0,34,0.00,,SKC,0.00,VWS V14.00,2013-05-26 00:28:00,
2013-05-25 20:33:00,67.3,38.0,29.18,NE,35,0.0,0.0,34,0.00,,SKC,0.00,VWS V14.00,2013-05-26 00:33:00,
2013-05-25 20:38:00,67.3,38.0,29.18,NE,36,0.0,0.0,34,0.00,,SKC,0.00,VWS V14.00,2013-05-26 00:38:00,
2013-05-25 20:43:00,66.9,37.7,29.18,NE,36,0.0,0.0,34,0.00,,SKC,0.00,VWS V14.00,2013-05-26 00:43:00,
2013-05-25 20:48:00,66.6,38.1,29.18,NE,36,0.0,0.0,35,0.00,,SKC,0.00,VWS V14.00,2013-05-26 00:48:00,
2013-05-25 20:53:00,66.2,37.8,29.18,NE,36,0.0,0.0,35,0.00,,SKC,0.00,VWS V14.00,2013-05-26 00:53:00,
2013-05-25 20:58:00,65.8,38.2,29.18,NE,35,0.0,0.0,36,0.00,,SKC,0.00,VWS V14.00,2013-05-26 00:58:00,
2013-05-25 21:03:00,65.5,37.8,29.18,NE,36,0.0,0.0,36,0.00,,SKC,0.00,VWS V14.00,2013-05-26 01:03:00,
2013-05-25 21:08:00,65.1,38.2,29.15,NE,35,0.0,0.0,37,0.00,,SKC,0.00,VWS V14.00,2013-05-26 01:08:00,
2013-05-25 21:13:00,64.8,37.9,29.15,NE,36,0.0,0.0,37,0.00,,SKC,0.00,VWS V14.00,2013-05-26 01:13:00,
2013-05-25 21:18:00,64.4,38.3,29.15,NE,35,0.0,0.0,38,0.00,,SKC,0.00,VWS V14.00,2013-05-26 01:18:00,
2013-05-25 21:23:00,64.2,38.8,29.15,NE,36,0.0,0.0,39,0.00,,SKC,0.00,VWS V14.00,2013-05-26 01:23:00,
2013-05-25 21:28:00,63.9,38.5,29.15,NE,36,0.0,0.0,39,0.00,,SKC,0.00,VWS V14.00,2013-05-26 01:28:00,
2013-05-25 21:33:00,63.5,38.1,29.15,NE,36,0.0,0.0,39,0.00,,SKC,0.00,VWS V14.00,2013-05-26 01:33:00,
2013-05-25 21:38:00,63.3,38.6,29.15,NE,36,0.0,0.0,40,0.00,,SKC,0.00,VWS V14.00,2013-05-26 01:38:00,
2013-05-25 21:43:00,63.1,39.1,29.15,NE,36,0.0,0.0,41,0.00,,SKC,0.00,VWS V14.00,2013-05-26 01:43:00,
2013-05-25 21:48:00,63.1,39.1,29.12,NE,36,0.0,0.0,41,0.00,,SKC,0.00,VWS V14.00,2013-05-26 01:48:00,
2013-05-25 21:53:00,62.6,39.2,29.12,NE,36,0.0,0.0,42,0.00,,SKC,0.00,VWS V14.00,2013-05-26 01:53:00,
2013-05-25 21:58:00,62.4,39.0,29.12,NE,35,0.0,0.0,42,0.00,,SKC,0.00,VWS V14.00,2013-05-26 01:58:00,
2013-05-25 22:03:00,62.2,39.5,29.12,NE,35,0.0,0.0,43,0.00,,SKC,0.00,VWS V14.00,2013-05-26 02:03:00,
2013-05-25 22:08:00,61.9,39.2,29.12,NE,36,0.0,0.0,43,0.00,,SKC,0.00,VWS V14.00,2013-05-26 02:08:00,
2013-05-25 22:13:00,61.3,39.3,29.12,NE,36,0.0,0.0,44,0.00,,SKC,0.00,VWS V14.00,2013-05-26 02:13:00,
2013-05-25 22:18:00,61.0,38.9,29.12,NE,36,0.0,0.0,44,0.00,,SKC,0.00,VWS V14.00,2013-05-26 02:18:00,
2013-05-25 22:24:00,60.8,38.8,29.15,NE,36,0.0,0.0,44,0.00,,SKC,0.00,VWS V14.00,2013-05-26 02:24:00,
2013-05-25 22:29:00,61.0,38.9,29.15,NE,36,0.0,0.0,44,0.00,,SKC,0.00,VWS V14.00,2013-05-26 02:29:00,
2013-05-25 22:34:00,61.0,39.5,29.15,NE,36,0.0,0.0,45,0.00,,SKC,0.00,VWS V14.00,2013-05-26 02:34:00,
2013-05-25 22:39:00,61.0,39.5,29.15,NE,36,0.0,0.0,45,0.00,,SKC,0.00,VWS V14.00,2013-05-26 02:39:00,
2013-05-25 22:44:00,61.2,39.7,29.15,NE,35,0.0,0.0,45,0.00,,SKC,0.00,VWS V14.00,2013-05-26 02:44:00,
2013-05-25 22:49:00,61.0,39.5,29.15,NE,36,0.0,0.0,45,0.00,,SKC,0.00,VWS V14.00,2013-05-26 02:49:00,
2013-05-25 22:54:00,60.6,39.8,29.15,NE,35,0.0,0.0,46,0.00,,SKC,0.00,VWS V14.00,2013-05-26 02:54:00,
2013-05-25 22:59:00,60.3,39.4,29.15,NE,36,0.0,0.0,46,0.00,,SKC,0.00,VWS V14.00,2013-05-26 02:59:00,
2013-05-25 23:04:00,59.9,39.6,29.15,NE,36,0.0,0.0,47,0.00,,SKC,0.00,VWS V14.00,2013-05-26 03:04:00,
2013-05-25 23:09:00,59.5,39.3,29.15,NE,36,0.0,0.0,47,0.00,,SKC,0.00,VWS V14.00,2013-05-26 03:09:00,
2013-05-25 23:14:00,59.0,39.4,29.15,NE,36,0.0,0.0,48,0.00,,SKC,0.00,VWS V14.00,2013-05-26 03:14:00,
2013-05-25 23:19:00,59.0,39.4,29.15,NE,36,0.0,0.0,48,0.00,,SKC,0.00,VWS V14.00,2013-05-26 03:19:00,
2013-05-25 23:24:00,59.0,39.4,29.15,NE,36,0.0,0.0,48,0.00,,SKC,0.00,VWS V14.00,2013-05-26 03:24:00,
2013-05-25 23:29:00,58.6,39.5,29.15,NE,36,0.0,0.0,49,0.00,,SKC,0.00,VWS V14.00,2013-05-26 03:29:00,
2013-05-25 23:34:00,58.3,39.2,29.18,NE,35,0.0,0.0,49,0.00,,SKC,0.00,VWS V14.00,2013-05-26 03:34:00,
2013-05-25 23:39:00,58.3,39.7,29.18,NE,36,0.0,0.0,50,0.00,,SKC,0.00,VWS V14.00,2013-05-26 03:39:00,
2013-05-25 23:44:00,58.3,39.7,29.18,NE,35,0.0,0.0,50,0.00,,SKC,0.00,VWS V14.00,2013-05-26 03:44:00,
2013-05-25 23:49:00,58.1,39.6,29.18,NE,35,0.0,0.0,50,0.00,,SKC,0.00,VWS V14.00,2013-05-26 03:49:00,
2013-05-25 23:54:00,57.9,39.4,29.18,NE,35,0.0,0.0,50,0.00,,SKC,0.00,VWS V14.00,2013-05-26 03:54:00,
2013-05-25 23:59:00,57.9,39.9,29.18,NE,35,0.0,0.0,51,0.00,,SKC,0.00,VWS V14.00,2013-05-26 03:59:00,